| time (UTC) | temp F | wind direction | speed MPH | gust MPH | rain 1hr in | rain 24hr in | rain mn in | humidity % | barometer mb |
| 20260503173036 | 71 | 264 | 3.0 | 8.0 | 0.00 | 0.00 | 0.00 | 35 | 1018.8 |
| 20260503172533 | 70 | 104 | 9.0 | 10.0 | 0.00 | 0.00 | 0.00 | 35 | 1018.7 |
| 20260503172030 | 69 | 146 | 5.0 | 11.0 | 0.00 | 0.00 | 0.00 | 36 | 1018.8 |
| 20260503171527 | 70 | 118 | 5.0 | 7.0 | 0.00 | 0.00 | 0.00 | 37 | 1018.8 |
| 20260503171024 | 71 | 174 | 2.0 | 6.0 | 0.00 | 0.00 | 0.00 | 38 | 1018.6 |
| 20260503170520 | 70 | 182 | 2.0 | 5.0 | 0.00 | 0.00 | 0.00 | 37 | 1018.8 |
| 20260503150913 | 61 | 106 | 4.0 | 11.0 | 0.00 | 0.00 | 0.00 | 51 | 1020.2 |
| 20260503150409 | 60 | 322 | 3.0 | 10.0 | 0.00 | 0.00 | 0.00 | 52 | 1020.4 |
| 20260503131303 | 51 | 177 | 4.0 | 8.0 | 0.00 | 0.00 | 0.00 | 70 | 1021.4 |
| 20260503130800 | 50 | 225 | 1.0 | 5.0 | 0.00 | 0.00 | 0.00 | 73 | 1021.5 |
| 20260503130257 | 50 | 200 | 2.0 | 5.0 | 0.00 | 0.00 | 0.00 | 75 | 1021.5 |
| 20260503120217 | 42 | 102 | 2.0 | 2.0 | 0.00 | 0.00 | 0.00 | 92 | 1021.0 |
| 20260503110645 | 39 | 118 | 3.0 | 4.0 | 0.00 | 0.00 | 0.00 | 95 | 1020.7 |
| 20260503110142 | 39 | 68 | 2.0 | 3.0 | 0.00 | 0.00 | 0.00 | 95 | 1020.5 |
| 20260503100109 | 38 | 64 | 0.0 | 3.0 | 0.00 | 0.00 | 0.00 | 94 | 1021.0 |
| 20260503081451 | 39 | 87 | 1.0 | 2.0 | 0.00 | 0.00 | 0.00 | 94 | 1021.4 |
| 20260503080948 | 39 | 95 | 2.0 | 3.0 | 0.00 | 0.00 | 0.00 | 94 | 1021.3 |
| 20260503080440 | 39 | 104 | 1.0 | 2.0 | 0.00 | 0.00 | 0.00 | 94 | 1021.4 |
| 20260503072916 | 40 | 104 | 2.0 | 2.0 | 0.00 | 0.00 | 0.00 | 93 | 1021.7 |
| 20260503072414 | 40 | 94 | 1.0 | 3.0 | 0.00 | 0.00 | 0.00 | 93 | 1021.5 |
| 20260503071910 | 40 | 95 | 2.0 | 3.0 | 0.00 | 0.00 | 0.00 | 93 | 1021.6 |
| 20260503071408 | 40 | 98 | 2.0 | 3.0 | 0.00 | 0.00 | 0.00 | 93 | 1021.6 |
| 20260503070903 | 40 | 102 | 2.0 | 3.0 | 0.00 | 0.00 | 0.00 | 93 | 1021.4 |
| 20260503070401 | 40 | 101 | 1.0 | 2.0 | 0.00 | 0.00 | 0.00 | 93 | 1021.5 |
| 20260503060326 | 41 | 96 | 2.0 | 2.0 | 0.00 | 0.00 | 0.00 | 91 | 1022.1 |
| 20260503054814 | 41 | 110 | 2.0 | 2.0 | 0.00 | 0.00 | 0.00 | 91 | 1021.9 |
| 20260503054310 | 41 | 105 | 1.0 | 2.0 | 0.00 | 0.00 | 0.00 | 91 | 1022.0 |
| 20260503053808 | 42 | 100 | 2.0 | 3.0 | 0.00 | 0.00 | 0.00 | 90 | 1021.9 |
| 20260503053307 | 42 | 119 | 0.0 | 2.0 | 0.00 | 0.00 | 0.00 | 90 | 1022.0 |
| 20260503052802 | 42 | 95 | 1.0 | 3.0 | 0.00 | 0.00 | 0.00 | 89 | 1022.1 |
| 20260503052300 | 42 | 112 | 1.0 | 3.0 | 0.00 | 0.00 | 0.00 | 89 | 1022.2 |
| 20260503051755 | 42 | 114 | 1.0 | 2.0 | 0.00 | 0.00 | 0.00 | 88 | 1022.2 |
| 20260503051252 | 42 | 98 | 1.0 | 2.0 | 0.00 | 0.00 | 0.00 | 89 | 1022.3 |
| 20260503050748 | 42 | 99 | 2.0 | 3.0 | 0.00 | 0.00 | 0.00 | 89 | 1022.1 |
| 20260503050239 | 42 | 108 | 0.0 | 2.0 | 0.00 | 0.00 | 0.00 | 89 | 1022.2 |
| 20260503045737 | 42 | 127 | 1.0 | 2.0 | 0.00 | 0.00 | 0.00 | 90 | 1022.2 |
| 20260503045234 | 42 | 105 | 2.0 | 2.0 | 0.00 | 0.00 | 0.00 | 90 | 1022.1 |
| 20260503044730 | 42 | 91 | 1.0 | 3.0 | 0.00 | 0.00 | 0.00 | 90 | 1022.1 |
| 20260503044228 | 42 | 66 | 0.0 | 3.0 | 0.00 | 0.00 | 0.00 | 89 | 1022.0 |
| 20260503043724 | 42 | 110 | 2.0 | 3.0 | 0.00 | 0.00 | 0.00 | 88 | 1022.2 |
| 20260503043222 | 43 | 87 | 1.0 | 2.0 | 0.00 | 0.00 | 0.00 | 87 | 1022.1 |
| 20260503042718 | 43 | 97 | 2.0 | 2.0 | 0.00 | 0.00 | 0.00 | 86 | 1022.1 |
| 20260503042215 | 43 | 103 | 1.0 | 3.0 | 0.00 | 0.00 | 0.00 | 87 | 1021.9 |
| 20260503041710 | 43 | 124 | 2.0 | 3.0 | 0.00 | 0.00 | 0.00 | 86 | 1022.1 |
| 20260503041209 | 43 | 111 | 1.0 | 2.0 | 0.00 | 0.00 | 0.00 | 86 | 1022.0 |
| 20260503040706 | 43 | 99 | 1.0 | 3.0 | 0.00 | 0.00 | 0.00 | 87 | 1022.1 |
| 20260503040203 | 44 | 109 | 1.0 | 3.0 | 0.00 | 0.00 | 0.00 | 86 | 1022.0 |
| 20260503035659 | 44 | 114 | 2.0 | 3.0 | 0.00 | 0.00 | 0.00 | 86 | 1021.9 |
| 20260503035157 | 44 | 101 | 2.0 | 3.0 | 0.00 | 0.00 | 0.00 | 84 | 1022.1 |
| 20260503034655 | 44 | 60 | 0.0 | 2.0 | 0.00 | 0.00 | 0.00 | 85 | 1022.2 |
| 20260503034151 | 44 | 84 | 0.0 | 2.0 | 0.00 | 0.00 | 0.00 | 85 | 1022.1 |
| 20260503033649 | 44 | 108 | 2.0 | 3.0 | 0.00 | 0.00 | 0.00 | 85 | 1022.2 |
| 20260503033146 | 44 | 104 | 2.0 | 3.0 | 0.00 | 0.00 | 0.00 | 84 | 1022.0 |
| 20260503032644 | 45 | 105 | 2.0 | 3.0 | 0.00 | 0.00 | 0.00 | 83 | 1022.1 |
| 20260503032143 | 45 | 93 | 1.0 | 2.0 | 0.00 | 0.00 | 0.00 | 84 | 1022.1 |
| 20260503031640 | 45 | 102 | 1.0 | 3.0 | 0.00 | 0.00 | 0.00 | 83 | 1022.0 |
| 20260503031137 | 45 | 94 | 2.0 | 2.0 | 0.00 | 0.00 | 0.00 | 83 | 1022.2 |
| 20260503030633 | 45 | 108 | 2.0 | 2.0 | 0.00 | 0.00 | 0.00 | 83 | 1022.1 |
| 20260503030130 | 46 | 119 | 2.0 | 3.0 | 0.00 | 0.00 | 0.00 | 81 | 1022.0 |
| 20260503025626 | 46 | 126 | 0.0 | 2.0 | 0.00 | 0.00 | 0.00 | 81 | 1022.1 |
| 20260503025125 | 46 | 80 | 0.0 | 3.0 | 0.00 | 0.00 | 0.00 | 81 | 1022.0 |
| 20260503024621 | 46 | 116 | 2.0 | 3.0 | 0.00 | 0.00 | 0.00 | 81 | 1022.0 |
| 20260503024118 | 46 | 110 | 2.0 | 3.0 | 0.00 | 0.00 | 0.00 | 82 | 1021.9 |
| 20260503023615 | 46 | 106 | 2.0 | 2.0 | 0.00 | 0.00 | 0.00 | 81 | 1022.0 |
| 20260503023112 | 46 | 114 | 1.0 | 2.0 | 0.00 | 0.00 | 0.00 | 81 | 1022.1 |
| 20260503022608 | 46 | 107 | 2.0 | 2.0 | 0.00 | 0.00 | 0.00 | 80 | 1022.1 |
| 20260503022103 | 47 | 112 | 2.0 | 3.0 | 0.00 | 0.00 | 0.00 | 79 | 1022.1 |
| 20260503021600 | 47 | 99 | 1.0 | 3.0 | 0.00 | 0.00 | 0.00 | 78 | 1021.9 |
| 20260503021057 | 47 | 118 | 2.0 | 3.0 | 0.00 | 0.00 | 0.00 | 77 | 1022.0 |
| 20260503020554 | 48 | 113 | 1.0 | 3.0 | 0.00 | 0.00 | 0.00 | 75 | 1022.0 |
| 20260503020050 | 48 | 115 | 1.0 | 2.0 | 0.00 | 0.00 | 0.00 | 74 | 1021.8 |
| 20260503015547 | 48 | 110 | 2.0 | 3.0 | 0.00 | 0.00 | 0.00 | 73 | 1021.9 |
| 20260503015045 | 49 | 116 | 1.0 | 2.0 | 0.00 | 0.00 | 0.00 | 72 | 1021.7 |
| 20260503014540 | 50 | 105 | 1.0 | 2.0 | 0.00 | 0.00 | 0.00 | 69 | 1021.8 |
| 20260503014039 | 49 | 108 | 2.0 | 2.0 | 0.00 | 0.00 | 0.00 | 70 | 1021.5 |
| 20260503013535 | 50 | 99 | 2.0 | 2.0 | 0.00 | 0.00 | 0.00 | 68 | 1021.5 |
| 20260503013033 | 51 | 118 | 1.0 | 2.0 | 0.00 | 0.00 | 0.00 | 67 | 1021.4 |
| 20260503012531 | 52 | 98 | 1.0 | 3.0 | 0.00 | 0.00 | 0.00 | 65 | 1021.5 |
| 20260503012027 | 52 | 124 | 0.0 | 2.0 | 0.00 | 0.00 | 0.00 | 64 | 1021.5 |
| 20260503011523 | 53 | 110 | 2.0 | 2.0 | 0.00 | 0.00 | 0.00 | 62 | 1021.4 |
| 20260503011021 | 53 | 97 | 2.0 | 2.0 | 0.00 | 0.00 | 0.00 | 61 | 1021.1 |
| 20260503010517 | 53 | 108 | 1.0 | 2.0 | 0.00 | 0.00 | 0.00 | 61 | 1021.3 |
| 20260503010015 | 54 | 114 | 2.0 | 2.0 | 0.00 | 0.00 | 0.00 | 58 | 1021.1 |
| 20260503005512 | 55 | 110 | 1.0 | 2.0 | 0.00 | 0.00 | 0.00 | 58 | 1021.4 |
| 20260503005009 | 56 | 129 | 0.0 | 3.0 | 0.00 | 0.00 | 0.00 | 57 | 1021.0 |
| 20260503004505 | 56 | 99 | 2.0 | 2.0 | 0.00 | 0.00 | 0.00 | 55 | 1021.1 |
| 20260503004003 | 56 | 113 | 0.0 | 2.0 | 0.00 | 0.00 | 0.00 | 56 | 1021.0 |
| 20260503003459 | 57 | 114 | 2.0 | 3.0 | 0.00 | 0.00 | 0.00 | 54 | 1021.3 |
| 20260503002957 | 57 | 49 | 0.0 | 1.0 | 0.00 | 0.00 | 0.00 | 52 | 1021.1 |
| 20260503002454 | 58 | 37 | 0.0 | 1.0 | 0.00 | 0.00 | 0.00 | 51 | 1021.3 |
| 20260503001949 | 59 | 105 | 1.0 | 2.0 | 0.00 | 0.00 | 0.00 | 49 | 1021.4 |
| 20260503001447 | 59 | 44 | 0.0 | 1.0 | 0.00 | 0.00 | 0.00 | 48 | 1021.1 |
| 20260503000944 | 59 | 50 | 0.0 | 1.0 | 0.00 | 0.00 | 0.00 | 48 | 1021.3 |
| 20260503000441 | 60 | 107 | 0.0 | 2.0 | 0.00 | 0.00 | 0.00 | 48 | 1021.1 |
| 20260502235938 | 60 | 32 | 0.0 | 2.0 | 0.00 | 0.00 | 0.00 | 49 | 1021.0 |
| 20260502235435 | 60 | 154 | 0.0 | 2.0 | 0.00 | 0.00 | 0.00 | 44 | 1021.1 |
| 20260502234933 | 60 | 116 | 0.0 | 2.0 | 0.00 | 0.00 | 0.00 | 43 | 1020.7 |
| 20260502234429 | 60 | 91 | 0.0 | 3.0 | 0.00 | 0.00 | 0.00 | 42 | 1021.1 |
| 20260502233926 | 61 | 202 | 0.0 | 4.0 | 0.00 | 0.00 | 0.00 | 40 | 1021.0 |
| 20260502233421 | 61 | 182 | 0.0 | 4.0 | 0.00 | 0.00 | 0.00 | 40 | 1021.0 |
| 20260502232919 | 61 | 170 | 2.0 | 3.0 | 0.00 | 0.00 | 0.00 | 40 | 1021.0 |
| 20260502232415 | 61 | 246 | 0.0 | 4.0 | 0.00 | 0.00 | 0.00 | 41 | 1021.3 |
| 20260502231912 | 62 | 217 | 0.0 | 2.0 | 0.00 | 0.00 | 0.00 | 39 | 1021.1 |
| 20260502231409 | 62 | 144 | 0.0 | 3.0 | 0.00 | 0.00 | 0.00 | 39 | 1021.1 |
| 20260502230907 | 62 | 106 | 0.0 | 5.0 | 0.00 | 0.00 | 0.00 | 40 | 1021.1 |
| 20260502230405 | 62 | 40 | 2.0 | 3.0 | 0.00 | 0.00 | 0.00 | 41 | 1021.1 |
| 20260502225903 | 63 | 215 | 3.0 | 3.0 | 0.00 | 0.00 | 0.00 | 38 | 1021.3 |
| 20260502225358 | 64 | 17 | 0.0 | 2.0 | 0.00 | 0.00 | 0.00 | 41 | 1021.0 |
| 20260502224855 | 62 | 195 | 0.0 | 4.0 | 0.00 | 0.00 | 0.00 | 38 | 1021.3 |
| 20260502224346 | 63 | 221 | 0.0 | 3.0 | 0.00 | 0.00 | 0.00 | 38 | 1021.5 |
| 20260502223843 | 63 | 136 | 1.0 | 6.0 | 0.00 | 0.00 | 0.00 | 40 | 1021.4 |
| 20260502223341 | 63 | 251 | 2.0 | 6.0 | 0.00 | 0.00 | 0.00 | 39 | 1021.1 |
| 20260502222838 | 64 | 115 | 0.0 | 5.0 | 0.00 | 0.00 | 0.00 | 35 | 1021.3 |
| 20260502222336 | 65 | 199 | 2.0 | 8.0 | 0.00 | 0.00 | 0.00 | 35 | 1021.3 |
| 20260502221832 | 68 | 63 | 2.0 | 3.0 | 0.00 | 0.00 | 0.00 | 36 | 1021.3 |
| 20260502221328 | 68 | 234 | 0.0 | 3.0 | 0.00 | 0.00 | 0.00 | 33 | 1021.4 |
| 20260502220826 | 66 | 224 | 1.0 | 4.0 | 0.00 | 0.00 | 0.00 | 36 | 1021.3 |
| 20260502220321 | 68 | 322 | 0.0 | 1.0 | 0.00 | 0.00 | 0.00 | 34 | 1021.1 |
| 20260502215818 | 64 | 128 | 2.0 | 8.0 | 0.00 | 0.00 | 0.00 | 37 | 1021.5 |
| 20260502215315 | 68 | 314 | 2.0 | 5.0 | 0.00 | 0.00 | 0.00 | 34 | 1021.1 |
| 20260502214812 | 67 | 212 | 2.0 | 5.0 | 0.00 | 0.00 | 0.00 | 35 | 1021.3 |
| 20260502214309 | 69 | 192 | 0.0 | 5.0 | 0.00 | 0.00 | 0.00 | 32 | 1021.0 |
| 20260502213806 | 68 | 169 | 5.0 | 7.0 | 0.00 | 0.00 | 0.00 | 31 | 1021.3 |
| 20260502213303 | 68 | 236 | 3.0 | 7.0 | 0.00 | 0.00 | 0.00 | 34 | 1021.1 |
| 20260502212802 | 69 | 205 | 1.0 | 4.0 | 0.00 | 0.00 | 0.00 | 32 | 1021.3 |
| 20260502212300 | 66 | 108 | 3.0 | 4.0 | 0.00 | 0.00 | 0.00 | 40 | 1021.3 |
| 20260502211756 | 64 | 22 | 0.0 | 4.0 | 0.00 | 0.00 | 0.00 | 38 | 1021.4 |
| 20260502211252 | 64 | 137 | 1.0 | 8.0 | 0.00 | 0.00 | 0.00 | 38 | 1021.3 |
| 20260502210749 | 65 | 191 | 2.0 | 4.0 | 0.00 | 0.00 | 0.00 | 37 | 1021.4 |
| 20260502210241 | 64 | 167 | 2.0 | 7.0 | 0.00 | 0.00 | 0.00 | 36 | 1021.3 |
| 20260502205738 | 67 | 64 | 1.0 | 4.0 | 0.00 | 0.00 | 0.00 | 35 | 1021.4 |
| 20260502205234 | 66 | 92 | 3.0 | 6.0 | 0.00 | 0.00 | 0.00 | 38 | 1021.3 |
| 20260502204732 | 64 | 208 | 2.0 | 6.0 | 0.00 | 0.00 | 0.00 | 35 | 1021.4 |
| 20260502204229 | 62 | 176 | 2.0 | 7.0 | 0.00 | 0.00 | 0.00 | 39 | 1021.5 |
| 20260502203726 | 66 | 264 | 1.0 | 7.0 | 0.00 | 0.00 | 0.00 | 35 | 1021.6 |
| 20260502203224 | 66 | 206 | 2.0 | 2.0 | 0.00 | 0.00 | 0.00 | 37 | 1021.7 |
| 20260502202718 | 66 | 130 | 4.0 | 8.0 | 0.00 | 0.00 | 0.00 | 36 | 1021.5 |
| 20260502202217 | 67 | 200 | 0.0 | 5.0 | 0.00 | 0.00 | 0.00 | 34 | 1021.7 |
| 20260502201714 | 67 | 224 | 3.0 | 5.0 | 0.00 | 0.00 | 0.00 | 36 | 1021.8 |
| 20260502201210 | 66 | 242 | 2.0 | 5.0 | 0.00 | 0.00 | 0.00 | 37 | 1021.8 |
| 20260502200706 | 65 | 190 | 0.0 | 9.0 | 0.00 | 0.00 | 0.00 | 37 | 1021.9 |
| 20260502200203 | 66 | 193 | 0.0 | 5.0 | 0.00 | 0.00 | 0.00 | 39 | 1022.0 |
| 20260502195701 | 67 | 246 | 4.0 | 5.0 | 0.00 | 0.00 | 0.00 | 36 | 1021.8 |
| 20260502195157 | 66 | 153 | 1.0 | 7.0 | 0.00 | 0.00 | 0.00 | 39 | 1021.9 |
| 20260502194654 | 65 | 224 | 2.0 | 4.0 | 0.00 | 0.00 | 0.00 | 40 | 1022.1 |
| 20260502194150 | 63 | 118 | 1.0 | 5.0 | 0.00 | 0.00 | 0.00 | 44 | 1022.1 |
| 20260502193647 | 66 | 139 | 2.0 | 6.0 | 0.00 | 0.00 | 0.00 | 39 | 1022.1 |
| 20260502193144 | 66 | 126 | 0.0 | 6.0 | 0.00 | 0.00 | 0.00 | 40 | 1022.0 |
| 20260502192639 | 66 | 134 | 5.0 | 7.0 | 0.00 | 0.00 | 0.00 | 36 | 1022.1 |
| 20260502192137 | 63 | 177 | 1.0 | 7.0 | 0.00 | 0.00 | 0.00 | 41 | 1022.0 |
| 20260502191634 | 66 | 111 | 2.0 | 6.0 | 0.00 | 0.00 | 0.00 | 38 | 1022.3 |
| 20260502191131 | 65 | 200 | 3.0 | 6.0 | 0.00 | 0.00 | 0.00 | 40 | 1022.2 |
| 20260502190629 | 66 | 229 | 4.0 | 6.0 | 0.00 | 0.00 | 0.00 | 36 | 1022.2 |
| 20260502190126 | 66 | 71 | 0.0 | 4.0 | 0.00 | 0.00 | 0.00 | 42 | 1022.2 |
| 20260502185620 | 65 | 246 | 2.0 | 6.0 | 0.00 | 0.00 | 0.00 | 42 | 1022.2 |
| 20260502185118 | 64 | 129 | 5.0 | 6.0 | 0.00 | 0.00 | 0.00 | 38 | 1022.3 |
| 20260502184614 | 64 | 159 | 3.0 | 7.0 | 0.00 | 0.00 | 0.00 | 39 | 1022.2 |
| 20260502184109 | 67 | 120 | 0.0 | 3.0 | 0.00 | 0.00 | 0.00 | 41 | 1022.1 |
| 20260502183606 | 64 | 180 | 0.0 | 4.0 | 0.00 | 0.00 | 0.00 | 40 | 1022.2 |
| 20260502183103 | 65 | 96 | 1.0 | 4.0 | 0.00 | 0.00 | 0.00 | 40 | 1022.2 |
| 20260502182557 | 64 | 107 | 4.0 | 6.0 | 0.00 | 0.00 | 0.00 | 37 | 1022.1 |
| 20260502182053 | 63 | 99 | 3.0 | 6.0 | 0.00 | 0.00 | 0.00 | 41 | 1022.3 |
| 20260502181551 | 64 | 201 | 1.0 | 5.0 | 0.00 | 0.00 | 0.00 | 39 | 1022.2 |
| 20260502181050 | 65 | 57 | 3.0 | 6.0 | 0.00 | 0.00 | 0.00 | 40 | 1022.2 |
| 20260502180547 | 65 | 30 | 2.0 | 5.0 | 0.00 | 0.00 | 0.00 | 38 | 1022.4 |